Location: Fxbg
(38.3018°N, 77.4708°W)
Time: 13:16:21
(UTC-04:00)

ISS - Visible Passes

Search period start: 19 April 2025 00:00
Search period end: 29 April 2025 00:00
Orbit: 414 x 421 km, 51.6° (Epoch: 19 April)

Date Brightness Start Highest point End Pass type
(mag) Time Alt. Az. Time Alt. Az. Time Alt. Az.
19 Apr -3.5 05:28:19 17° SW 05:30:45 62° SE 05:34:03 10° ENE visible
20 Apr -2.6 04:42:16 31° SSE 04:42:43 33° SE 04:45:45 10° ENE visible
21 Apr -1.0 03:56:07 15° E 03:56:07 15° E 03:57:06 10° E visible
21 Apr -3.1 05:29:02 17° W 05:31:15 42° NW 05:34:27 10° NE visible
22 Apr -3.9 04:42:46 69° W 04:43:01 75° NW 04:46:22 10° NE visible
23 Apr -1.7 03:56:24 27° ENE 03:56:24 27° ENE 03:58:08 10° ENE visible
23 Apr -1.8 05:29:19 10° WNW 05:31:50 20° NNW 05:34:22 10° NNE visible
24 Apr -2.4 04:42:52 26° NW 04:43:27 28° NNW 04:46:24 10° NNE visible
25 Apr -1.9 03:56:20 29° NNE 03:56:20 29° NNE 03:58:18 10° NE visible
25 Apr -1.1 05:31:10 10° NW 05:32:31 12° NNW 05:33:51 10° N visible
26 Apr -0.4 03:09:44 12° NE 03:09:44 12° NE 03:10:05 10° NE visible
26 Apr -1.4 04:42:38 13° NW 04:43:56 15° NNW 04:45:59 10° NNE visible
27 Apr -1.5 03:55:58 20° N 03:55:58 20° N 03:58:00 10° NNE visible
28 Apr -0.5 03:09:15 14° NNE 03:09:15 14° NNE 03:09:52 10° NNE visible
28 Apr -0.7 04:44:20 10° NNW 04:44:30 10° NNW 04:44:39 10° N visible
